Theta_e
342 341 344 346 347 346 348 348 349 348 347 346 342 342 345 346 346 346 348 348 346 346 345 344 344 343 342 341 342 340 343 341 340 339 335 336 331 333 337 338 339 339 338 339 337 329 327 323 326 333 334 333 333 333 332 331 332 331 329 331 330 329 328
344 345 345 346 348 347 347 349 348 348 347 345 342 341 343 344 346 346 347 347 347 345 345 344 344 343 343 342 342 341 340 342 343 342 341 336 335 334 335 335 337 336 336 338 338 336 330 324 325 326 328 333 333 333 333 335 332 332 331 330 330 329 327
343 345 346 345 346 348 346 348 348 348 346 345 342 340 342 344 346 346 348 347 347 346 345 344 343 343 343 344 345 343 342 342 344 343 342 342 338 339 338 337 333 333 333 334 335 334 333 332 325 326 328 327 326 330 333 332 332 332 331 331 330 329 327
343 345 345 346 346 349 346 348 348 347 347 346 341 340 341 343 346 347 347 346 347 347 344 344 343 343 344 344 346 346 344 343 343 342 343 343 343 339 340 338 334 335 332 331 334 333 332 329 327 326 328 329 328 328 330 332 331 331 331 330 329 328 328
343 343 344 345 346 347 347 347 347 348 347 346 343 340 341 344 346 347 348 347 346 347 345 345 344 344 345 344 345 345 344 344 345 343 342 341 342 341 339 341 338 339 340 340 339 339 336 333 332 328 327 329 329 329 332 331 332 331 330 329 329 328 328
345 344 344 347 346 347 347 347 346 346 347 345 344 342 343 345 347 348 347 346 346 347 346 346 345 344 344 344 344 345 344 343 343 343 342 342 342 341 340 342 343 342 341 344 342 338 338 337 333 329 330 331 327 329 330 330 328 331 331 329 329 329 328
346 346 345 345 348 349 349 348 347 347 346 345 345 344 346 347 348 348 348 347 348 348 347 346 345 344 345 344 344 344 343 344 344 344 343 343 343 343 344 343 341 341 341 345 344 341 338 336 333 330 328 329 329 329 329 328 329 326 327 329 330 329 328
346 346 347 347 350 350 350 350 349 349 348 347 346 347 348 347 348 348 348 348 348 347 347 346 346 346 346 344 343 344 344 345 344 344 343 343 343 343 343 343 342 341 342 347 344 342 341 339 337 336 330 325 326 329 325 328 327 326 325 327 329 328 328
339 346 349 349 350 351 351 351 351 350 350 350 349 348 349 348 348 348 348 348 348 348 347 346 346 345 346 344 344 344 344 346 344 344 344 344 343 343 343 344 342 341 343 344 341 342 342 342 341 341 335 329 325 321 325 324 324 325 328 324 327 328 327
329 328 330 336 343 351 352 351 352 352 351 351 351 349 349 349 349 349 348 348 348 348 347 347 347 346 346 345 344 343 343 344 344 344 344 343 343 344 344 344 342 342 343 344 342 341 341 341 341 339 338 335 330 326 322 322 323 323 325 325 322 326 328
329 329 331 330 329 330 342 351 352 352 352 352 352 351 350 349 349 349 348 348 348 348 348 347 347 347 347 345 345 344 344 344 343 344 344 344 343 344 344 344 343 342 343 343 344 343 339 339 341 341 340 338 336 330 327 322 323 327 324 325 325 323 326
331 331 332 332 332 332 331 337 348 351 352 354 352 351 350 350 349 349 349 349 349 348 348 347 347 346 347 345 345 344 344 344 343 342 344 344 344 344 343 343 343 342 343 342 343 344 343 342 341 341 339 339 338 335 331 329 321 329 326 322 324 327 326
332 332 332 333 332 332 332 333 340 345 353 352 352 352 351 350 349 348 349 349 349 348 347 347 347 347 346 346 345 344 344 344 343 341 342 344 344 344 343 342 342 341 342 342 343 343 342 342 342 340 340 339 337 337 335 331 326 325 331 326 326 325 327
334 335 335 335 333 332 333 333 336 341 343 349 351 351 352 350 349 349 349 348 349 348 347 347 347 347 346 345 346 345 344 343 341 341 340 341 342 342 342 342 341 342 343 342 341 342 342 341 341 341 340 338 336 336 333 330 324 323 326 330 327 325 326
337 337 336 335 334 334 333 334 334 339 341 340 351 351 351 351 350 350 349 349 349 349 348 347 347 346 345 345 345 345 344 343 341 340 340 339 340 341 342 341 341 342 344 342 342 341 341 340 340 339 337 337 336 334 335 332 328 323 323 327 326 328 324
337 337 336 336 335 336 337 338 338 337 339 338 345 350 350 350 349 349 349 349 349 349 348 348 348 346 345 345 344 344 344 343 341 340 339 338 338 339 340 341 341 342 344 342 342 341 340 340 339 338 336 337 336 335 334 334 330 325 324 324 328 324 323
337 336 335 335 335 335 336 337 339 339 340 340 344 348 349 350 349 348 348 348 348 348 348 348 347 346 345 345 345 344 343 343 342 341 339 338 338 338 338 340 341 342 342 341 341 341 341 340 338 337 336 336 337 337 335 334 334 329 326 324 325 324 324
336 336 335 335 334 334 335 336 337 337 339 340 343 346 348 350 350 349 349 348 348 348 348 348 347 346 346 346 345 344 343 343 342 342 341 339 340 338 338 339 341 341 342 340 340 340 340 339 339 337 335 336 335 337 337 335 334 333 328 325 325 326 324
338 336 335 335 334 334 334 335 336 337 337 338 340 343 347 347 348 348 348 348 348 348 348 347 347 347 346 346 345 344 344 342 342 342 340 340 339 339 338 339 341 342 341 340 339 340 340 340 339 337 336 335 335 335 335 334 334 332 327 326 326 324 324
341 340 337 335 334 334 334 335 336 337 339 338 339 341 346 346 346 348 347 348 348 348 348 347 347 347 347 346 345 344 343 342 342 341 341 340 340 340 340 340 341 342 342 342 341 340 341 341 340 337 336 336 336 334 333 333 332 330 326 325 325 325 324
343 343 341 339 337 337 336 336 338 338 337 336 337 339 343 346 345 346 346 347 348 348 347 346 346 346 347 346 345 344 343 342 341 341 341 341 340 340 341 341 341 342 343 343 342 342 342 341 340 338 338 337 336 334 333 332 331 329 326 324 323 324 323
337 342 342 342 338 336 337 341 339 337 336 336 336 336 338 343 346 345 345 345 345 346 347 346 346 346 346 345 344 343 343 341 340 340 340 340 340 340 340 341 341 342 343 341 334 335 336 337 341 337 337 337 335 334 333 332 330 327 326 324 323 325 323
324 328 339 333 332 332 333 335 334 335 337 337 337 337 336 335 335 340 343 344 344 345 346 347 338 328 331 344 344 343 343 342 341 340 340 339 339 339 339 340 341 340 336 334 329 322 321 324 330 337 339 337 335 334 333 332 329 326 324 323 323 324 323
323 322 323 334 331 331 332 332 332 332 332 333 334 334 337 336 336 336 339 343 343 344 345 345 324 316 316 322 340 343 342 342 341 341 340 339 338 338 339 339 340 340 335 333 330 317 316 316 318 322 325 328 331 336 334 332 332 326 323 323 324 323 323
322 322 321 325 338 335 333 333 334 333 333 337 341 340 337 336 336 334 335 339 343 343 344 331 315 314 313 313 323 343 343 342 341 340 340 340 339 338 338 339 339 341 340 339 339 327 320 315 314 315 315 316 317 319 321 332 333 327 323 322 322 323 323
321 321 322 322 335 337 338 337 336 336 335 337 337 335 334 334 333 334 334 337 339 343 343 324 313 312 312 312 312 330 343 342 340 340 340 340 339 338 338 338 338 340 341 334 337 337 332 326 314 314 315 315 316 314 311 310 310 325 328 324 323 323 324
320 321 322 322 327 337 335 334 335 335 335 335 335 334 333 333 334 335 336 337 336 340 343 326 311 310 311 310 309 318 343 342 341 341 341 340 340 339 338 338 337 338 339 339 339 340 336 333 328 326 327 328 331 325 314 312 311 306 317 327 326 324 326
318 320 321 321 321 329 335 333 333 333 332 332 332 332 333 334 335 334 335 335 336 338 344 319 309 309 308 307 307 312 342 343 342 341 341 341 340 340 339 339 338 338 338 340 340 338 338 336 333 331 331 332 333 333 331 329 325 322 324 329 328 328 329
317 318 319 320 320 320 331 333 332 332 331 331 331 332 331 332 332 333 334 334 334 335 342 316 309 308 308 307 306 320 339 342 341 341 341 341 341 341 340 340 339 339 339 340 329 317 326 338 335 333 333 333 333 333 334 328 319 317 325 329 330 331 331
315 317 318 319 319 320 320 331 332 332 331 331 330 329 330 330 331 332 333 334 334 334 338 323 309 309 308 307 307 325 336 341 340 340 340 341 341 341 340 340 340 340 340 340 325 310 313 324 337 334 334 333 333 333 333 333 314 308 308 310 312 313 314
314 315 315 317 318 320 320 322 333 332 331 331 330 330 330 330 331 331 330 332 332 331 333 324 307 311 310 307 314 330 336 340 340 339 339 341 341 341 340 332 337 341 340 340 317 306 308 325 338 336 334 333 332 331 331 332 329 321 304 304 304 304 303
313 313 314 315 318 319 320 320 324 335 333 332 329 329 328 329 330 331 331 331 325 328 330 327 306 307 307 307 315 333 337 339 340 340 340 340 341 341 341 333 328 332 337 332 311 306 306 324 339 338 336 334 332 331 332 333 330 328 324 321 320 318 315
315 314 314 315 316 318 320 320 320 330 336 332 329 329 329 330 330 331 333 333 333 333 332 333 319 303 305 305 308 333 339 339 339 339 340 339 340 340 341 342 329 312 313 315 307 305 305 313 336 338 337 334 332 331 333 332 330 330 327 325 325 324 323
314 315 315 315 316 317 320 320 320 321 335 333 331 330 331 331 331 331 331 331 331 331 331 331 326 305 303 304 305 318 338 339 339 338 338 336 339 340 340 341 342 320 309 307 303 304 306 308 318 338 336 334 333 331 326 331 326 320 328 326 324 324 324
314 315 315 315 314 315 318 320 320 320 323 332 332 332 331 330 330 331 331 331 331 331 328 316 320 307 299 301 304 309 334 338 337 338 337 337 338 339 340 341 341 326 309 306 301 303 304 306 308 333 335 318 315 311 329 331 329 325 327 327 326 323 323
312 313 313 315 314 314 316 318 320 320 320 327 334 332 331 330 329 329 329 330 329 325 325 322 310 309 301 299 300 305 314 326 317 334 338 337 337 338 340 340 339 320 308 304 302 301 303 304 307 326 315 309 309 305 315 331 329 327 326 326 326 324 323
312 312 312 313 314 313 314 317 319 319 318 323 331 332 330 330 328 327 326 326 324 325 324 324 314 306 305 301 302 302 306 312 314 328 332 338 340 340 340 340 335 310 306 304 302 300 301 303 313 311 309 305 304 306 326 328 327 329 324 323 323 324 324
Wind_Speed
10 12 12 10 9 9 9 10 9 9 10 10 9 10 10 10 9 8 8 8 9 8 8 8 8 8 7 7 7 8 6 6 6 4 6 7 7 4 3 3 3 7 6 2 1 3 3 5 4 3 3 4 4 5 6 6 6 6 6 4 5 4 4
11 10 10 8 9 10 9 10 9 10 10 10 10 10 10 10 10 9 8 8 8 9 8 8 7 8 9 7 8 9 8 6 5 5 4 6 7 5 6 5 3 4 5 4 4 3 2 2 3 6 5 4 3 4 5 4 6 6 7 7 6 5 4
9 9 9 9 8 9 10 10 9 9 10 9 10 11 10 11 11 10 9 10 9 10 9 9 8 8 8 7 7 9 9 6 5 5 4 4 7 6 7 6 5 4 4 3 4 5 4 4 3 6 7 8 7 6 5 5 6 6 6 6 6 6 4
12 10 10 10 9 9 10 10 10 9 9 9 10 10 11 11 11 11 9 10 9 8 9 9 8 8 8 7 6 7 8 8 6 5 4 3 4 6 4 7 7 5 5 4 4 4 3 2 3 3 4 7 8 6 7 6 6 6 7 6 6 6 5
11 9 10 11 11 11 11 10 9 8 9 9 10 10 10 10 10 10 10 9 10 9 10 8 7 7 8 7 6 6 7 7 5 6 5 5 4 5 5 5 7 5 4 3 3 2 4 3 5 4 5 3 2 1 5 6 5 3 7 7 7 6 7
9 10 9 9 11 10 10 9 10 10 9 9 10 11 11 12 10 10 10 9 8 9 8 8 8 9 8 7 7 6 6 7 7 6 6 6 5 5 5 3 2 3 2 4 5 4 2 2 4 2 3 2 2 2 4 7 5 5 7 7 7 7 7
7 8 8 8 10 9 9 10 11 10 11 11 12 11 11 12 10 10 11 10 9 9 9 9 8 8 8 9 8 6 7 6 6 7 6 6 5 5 4 4 4 4 4 4 5 5 4 4 4 5 3 2 2 2 3 4 4 4 4 6 7 6 7
4 7 8 8 8 10 10 10 10 9 9 9 11 10 12 12 10 10 11 10 10 10 9 9 7 7 7 8 7 7 6 6 6 6 6 7 7 7 6 5 5 6 5 5 6 5 5 6 5 4 5 3 1 1 4 6 6 8 6 6 7 7 8
13 9 4 6 7 9 11 11 11 11 10 9 10 11 12 13 11 10 10 10 9 9 9 9 8 7 7 8 7 7 7 6 7 7 7 7 7 7 7 6 5 5 5 5 6 6 5 4 3 4 5 5 5 4 5 5 6 8 10 7 7 8 8
7 11 12 16 11 5 10 11 10 10 10 9 9 11 12 12 12 11 11 10 10 9 10 9 8 8 8 7 7 8 9 7 7 8 8 7 7 6 6 7 7 6 5 5 6 6 5 3 4 5 5 6 6 4 5 6 8 7 9 9 7 8 9
14 14 11 9 10 14 14 6 10 10 11 11 10 10 11 13 12 13 11 11 10 10 10 11 9 8 8 8 8 8 9 9 8 6 7 7 7 6 7 7 6 6 6 6 7 8 7 5 5 5 5 5 6 6 4 4 4 9 6 8 7 8 9
10 10 12 14 11 8 11 16 9 10 10 10 11 12 12 13 13 13 12 12 11 11 10 11 10 9 9 8 9 8 8 8 8 7 6 7 7 7 8 8 8 7 7 7 7 8 8 8 7 6 6 6 5 4 3 2 2 1 9 9 8 9 10
10 9 7 7 8 12 13 12 15 10 10 11 12 13 13 13 13 13 12 13 13 12 11 10 11 10 10 9 9 8 8 9 9 9 7 6 7 8 8 9 9 8 8 7 7 8 8 8 7 6 6 5 5 4 1 1 3 2 3 7 6 10 12
11 10 9 8 7 8 9 10 11 11 11 9 12 13 13 14 14 13 14 13 13 13 12 11 11 10 10 10 10 10 10 10 10 9 9 8 9 8 9 9 9 9 8 8 7 7 8 8 7 7 6 6 5 4 4 2 3 2 1 3 6 9 11
8 8 9 9 10 10 8 8 8 10 11 13 12 14 15 13 13 14 13 14 14 14 14 13 12 11 12 12 11 9 11 12 11 11 11 10 10 9 8 10 10 10 10 9 8 9 9 8 7 6 5 5 5 6 5 4 5 2 4 1 3 7 10
8 9 10 9 11 11 10 9 8 9 11 13 14 13 14 14 14 15 14 14 15 14 14 14 12 13 13 13 13 12 11 13 12 11 12 12 11 10 10 10 11 10 8 10 10 9 8 9 8 8 7 6 5 6 6 6 4 4 6 5 4 5 9
10 9 10 10 12 13 12 10 9 8 13 14 17 13 13 14 14 14 15 15 15 15 15 14 14 14 15 14 14 14 13 13 13 12 12 12 12 11 11 11 11 10 9 11 10 10 8 9 9 9 8 7 6 5 7 7 5 3 3 7 5 5 6
10 11 11 10 11 12 13 12 11 12 11 15 16 14 13 13 14 14 13 15 16 15 16 16 15 15 14 14 15 14 14 13 13 13 13 12 12 12 11 11 11 11 10 10 10 9 9 9 8 8 8 8 7 6 5 6 6 5 4 5 6 4 6
11 12 13 12 12 12 11 12 11 10 11 15 18 16 15 14 13 15 15 15 16 16 15 15 16 15 15 15 14 14 14 14 14 13 13 12 12 11 11 11 11 11 11 11 11 9 9 11 8 9 9 8 8 7 7 7 6 6 5 5 6 6 6
10 12 12 13 11 11 11 11 11 12 12 14 18 17 15 15 13 16 17 16 16 16 15 15 15 15 15 16 15 15 14 14 13 12 12 13 12 11 12 12 11 12 12 12 11 10 10 10 9 8 9 9 8 8 8 8 8 8 7 6 4 7 7
11 11 11 11 11 10 10 10 10 10 10 12 17 19 19 15 14 14 15 15 16 15 15 15 16 16 16 16 15 15 15 14 14 13 12 12 12 12 12 12 11 12 13 12 11 9 11 10 8 9 8 8 8 8 8 8 9 9 8 7 6 6 6
8 11 11 8 8 11 11 10 12 13 14 17 18 14 14 12 13 15 14 13 14 14 15 15 14 15 16 17 15 15 15 15 14 14 13 13 13 13 12 12 12 12 13 14 15 13 13 12 10 11 10 9 9 8 8 8 7 8 8 8 7 5 7
9 9 8 9 11 11 11 10 8 9 11 15 15 14 14 11 11 13 14 14 14 13 12 11 15 21 19 16 16 15 14 15 15 14 14 14 13 13 13 12 12 17 17 18 18 17 17 18 15 13 11 11 11 10 10 9 9 8 8 9 9 8 9
10 11 10 11 13 11 11 11 13 16 15 13 12 10 9 10 12 12 16 15 15 14 13 12 19 20 21 22 18 15 15 15 16 15 14 14 14 13 12 13 11 13 14 13 16 20 19 19 18 20 19 18 15 13 12 12 11 9 10 9 9 9 9
12 12 11 11 13 16 17 17 18 15 12 11 10 5 4 5 6 8 11 15 14 14 14 17 21 22 23 22 20 16 15 15 15 15 14 14 13 13 13 12 11 10 12 14 10 12 16 19 20 20 21 21 20 19 16 13 12 9 10 9 9 11 10
12 12 12 11 10 12 13 14 14 12 12 10 7 7 8 8 9 10 12 16 16 15 14 19 21 24 24 24 23 20 15 17 17 16 15 15 14 13 13 12 11 10 10 17 13 10 11 13 16 21 20 20 21 21 19 18 13 8 8 10 10 10 11
13 13 12 12 9 10 10 12 12 10 8 7 7 7 8 10 10 10 12 14 16 16 16 18 21 23 25 25 24 20 15 16 15 16 17 16 14 15 14 13 13 11 9 8 11 12 11 12 12 12 14 14 14 19 21 24 24 19 14 12 12 12 9
15 14 13 12 13 10 11 12 11 10 9 9 9 9 9 9 8 9 10 12 16 17 14 17 19 22 22 23 23 20 15 14 13 14 15 16 16 15 14 14 14 13 11 9 8 13 12 12 12 12 13 13 13 14 15 15 15 11 10 11 12 12 8
14 14 14 14 13 15 10 12 12 11 9 9 8 8 8 9 10 9 9 13 16 18 17 19 18 20 21 21 23 14 15 14 13 13 14 14 14 13 13 13 13 13 12 12 12 18 16 12 12 13 14 13 12 11 12 13 10 8 8 7 7 8 8
13 13 14 15 15 15 14 11 12 10 11 10 10 9 9 8 9 9 9 10 14 16 17 19 21 22 22 23 16 11 15 12 12 13 14 14 14 14 13 13 13 13 14 15 17 19 19 17 12 14 14 14 11 9 11 8 11 15 14 12 11 11 9
14 13 14 16 16 15 14 12 12 13 12 11 12 13 13 12 12 13 14 13 12 12 18 18 23 26 27 24 21 18 16 15 13 13 12 12 11 11 13 18 16 14 14 15 17 19 19 18 13 14 14 13 12 12 12 9 5 8 12 12 12 10 9
18 17 16 16 15 16 15 15 11 13 13 12 13 13 12 12 13 12 12 13 18 20 17 18 18 23 25 24 22 16 16 14 13 12 11 11 10 10 11 13 19 17 15 16 18 19 21 19 14 13 14 12 13 15 15 10 10 10 7 7 8 8 9
18 14 15 14 14 16 14 13 16 11 14 12 13 13 13 13 14 10 9 9 8 8 9 15 14 20 21 22 24 18 14 14 14 13 12 11 11 11 11 11 14 18 18 17 17 21 22 22 16 13 11 12 13 17 10 8 11 10 10 12 12 12 14
19 18 15 15 14 16 14 15 14 16 11 14 16 15 14 13 13 13 12 11 10 8 6 9 15 19 19 22 23 22 14 15 14 12 12 12 11 12 12 12 12 18 21 17 18 22 23 24 21 14 13 13 16 9 7 9 10 13 11 11 11 10 10
19 17 17 14 15 15 16 15 15 16 13 13 18 17 15 13 13 14 13 12 9 6 6 6 6 2 8 14 22 23 16 15 15 13 13 12 12 12 13 13 12 18 23 20 19 21 23 23 21 12 14 18 13 13 11 8 7 9 10 8 9 9 10
18 16 16 16 14 16 16 16 16 15 17 14 16 19 17 16 14 14 13 11 9 9 8 8 6 1 7 4 15 20 22 17 18 13 13 14 14 14 13 13 14 18 22 21 20 22 22 22 17 14 19 17 16 17 12 8 8 10 9 9 8 9 10
18 18 19 17 14 14 15 15 15 15 16 16 13 16 15 16 14 14 14 12 11 9 8 8 7 14 12 20 21 22 24 21 12 6 4 9 11 10 9 10 11 16 21 22 21 19 19 19 16 21 18 14 15 15 10 9 9 9 10 9 10 10 10
Wind_Direction
177 169 178 175 166 169 169 170 173 173 182 176 176 189 186 179 185 185 182 177 174 189 181 194 185 179 180 190 172 181 196 192 202 189 164 160 166 189 212 239 191 181 195 210 207 176 149 157 198 209 226 209 191 198 194 199 180 162 170 177 183 195 170
180 167 170 171 161 164 175 167 175 174 182 176 178 188 189 182 182 186 186 181 179 185 188 196 189 183 187 190 167 173 195 192 193 190 171 167 159 182 170 207 211 213 198 186 184 193 132 161 178 178 195 207 216 209 209 164 175 169 170 179 183 192 168
181 166 166 168 172 163 177 170 175 176 180 173 178 188 192 185 182 186 188 184 191 183 188 193 191 186 184 199 172 175 185 190 186 195 192 171 167 185 175 169 181 215 229 191 184 191 208 176 163 184 182 184 201 213 191 184 179 179 173 173 175 190 175
173 162 164 164 171 166 176 173 178 178 178 176 174 185 193 189 181 184 191 185 191 185 186 195 187 184 177 191 185 174 177 184 179 194 198 204 172 185 183 165 181 197 193 196 184 181 178 148 135 171 182 193 198 188 199 188 193 181 171 169 180 182 192
170 164 167 166 174 176 178 175 176 176 178 178 174 180 188 193 180 183 189 191 185 188 191 193 181 183 175 180 183 178 175 181 182 179 189 205 197 181 193 179 182 193 194 160 137 136 163 155 156 162 181 202 161 213 170 183 190 186 173 180 182 182 188
174 167 177 171 176 177 176 172 177 182 177 179 179 180 184 194 180 176 185 192 187 187 195 191 180 185 176 175 184 176 176 182 187 182 184 192 189 189 191 190 180 180 187 137 135 152 171 132 159 163 189 120 129 192 151 162 182 197 185 181 182 184 185
181 174 177 183 175 177 177 177 183 185 183 184 176 181 181 189 185 176 184 189 187 185 193 200 186 183 170 174 181 178 182 186 183 188 187 191 191 189 185 183 190 184 200 157 146 148 159 173 182 199 154 110 139 154 123 173 182 182 203 186 179 178 179
223 191 181 188 179 179 180 182 183 185 185 184 179 177 178 184 190 177 183 186 182 183 190 196 188 181 164 166 175 179 177 181 189 187 191 192 191 188 196 195 183 187 195 147 135 151 172 197 201 167 140 128 104 82 175 196 173 205 190 193 184 173 182
328 312 260 208 197 183 180 184 183 183 184 180 177 178 178 179 186 179 183 187 184 182 187 195 189 180 168 169 174 173 179 179 187 192 197 200 200 193 194 191 187 193 183 162 157 159 186 201 185 132 144 151 174 186 193 208 193 214 195 175 178 177 179
310 317 316 317 313 257 189 184 182 182 180 179 179 180 176 180 182 177 183 186 187 183 182 194 194 185 171 174 179 178 178 178 185 194 196 195 201 199 197 192 190 190 190 173 161 171 176 195 203 163 173 186 188 207 176 209 215 206 192 169 175 182 179
202 212 227 271 299 313 302 226 178 181 181 183 180 180 178 179 180 179 178 185 186 187 182 186 192 193 179 177 186 189 178 175 188 190 189 193 198 197 199 194 189 192 192 186 173 166 170 192 201 192 193 209 208 209 215 210 212 196 157 168 176 169 176
216 225 200 193 203 242 284 291 259 186 188 180 178 175 179 179 180 181 180 180 185 190 186 184 188 192 189 181 183 190 189 179 179 187 189 191 198 195 200 202 198 199 190 190 180 170 173 189 195 199 198 212 200 210 211 225 233 42 146 173 180 175 172
209 224 225 223 220 196 203 244 274 263 194 181 180 179 179 181 183 184 182 179 182 188 191 189 188 189 188 187 183 187 191 191 180 182 191 194 199 198 203 203 203 201 194 187 182 173 179 189 195 194 197 195 202 199 130 214 222 171 187 170 161 162 165
213 206 195 187 204 234 239 209 247 260 267 210 182 180 181 182 185 187 184 182 183 186 190 192 190 189 186 189 189 187 188 197 191 184 186 196 202 202 207 212 205 202 193 189 186 177 181 189 190 196 188 181 176 158 149 201 225 175 343 149 163 153 166
218 211 201 188 190 208 218 242 230 272 249 251 206 185 184 185 185 185 186 186 186 187 190 192 191 190 190 190 192 187 191 194 198 191 186 197 201 204 202 209 212 202 196 194 189 188 185 186 182 176 180 171 166 162 163 185 228 181 182 161 170 135 162
204 215 214 199 198 196 206 213 219 231 259 248 240 196 188 188 187 186 188 189 189 188 189 191 190 193 194 192 192 192 191 192 195 197 190 192 201 202 202 205 210 205 192 195 193 195 180 184 182 175 179 165 175 169 173 197 218 200 160 204 183 158 159
199 209 218 216 204 200 194 199 203 208 241 239 238 214 196 190 189 189 190 190 191 190 189 190 191 194 196 193 192 193 193 193 194 198 195 190 199 206 203 203 205 207 199 194 195 192 192 184 182 174 173 165 179 180 176 188 220 225 174 172 215 176 167
212 209 218 224 223 213 201 199 200 194 219 246 244 224 200 194 190 191 193 191 191 191 190 190 193 195 196 196 192 190 192 194 197 197 197 195 196 206 204 205 202 205 208 199 199 196 189 191 183 169 167 166 175 182 173 176 194 216 212 180 188 196 160
221 218 220 225 227 222 213 202 203 198 191 231 248 236 208 195 191 194 195 194 191 190 190 191 192 194 196 196 193 188 189 194 197 198 197 197 199 200 206 204 205 203 208 206 201 195 186 189 190 173 170 170 175 179 176 173 192 207 208 213 175 181 165
217 219 216 217 225 234 230 216 208 200 193 214 236 239 219 198 194 196 196 194 191 188 189 191 192 194 196 196 194 188 188 192 194 197 198 196 199 202 202 206 206 204 207 208 202 193 183 184 191 179 174 174 174 180 184 188 194 198 193 205 202 177 174
219 224 222 216 219 232 246 243 216 205 205 218 241 232 224 204 199 199 198 195 192 188 189 191 193 195 196 196 193 192 188 190 192 197 197 198 199 203 203 205 209 206 207 205 204 196 183 186 177 177 175 169 172 181 191 198 195 194 184 192 206 184 180
229 223 224 219 227 235 239 237 224 217 210 211 216 234 262 248 209 200 203 199 195 192 192 193 194 193 194 198 195 193 191 190 192 193 195 198 200 202 203 203 206 210 204 204 199 194 190 185 176 176 173 171 177 183 193 206 207 195 183 183 203 191 185
241 237 205 191 230 237 244 243 260 264 236 226 225 219 206 218 258 241 217 204 201 200 197 196 194 194 192 194 194 195 192 191 193 193 192 195 200 202 204 202 204 207 205 200 199 195 190 186 175 172 171 176 178 185 191 201 206 202 190 187 194 197 194
254 240 228 198 206 226 226 235 234 227 232 234 240 238 238 215 201 228 241 219 205 203 201 199 192 195 198 196 196 193 190 191 194 195 194 192 196 201 203 202 200 204 210 206 199 195 190 187 177 171 175 178 180 183 188 198 212 201 194 193 189 200 206
261 259 241 224 193 192 202 209 218 220 221 224 224 194 167 209 236 237 253 247 222 207 204 200 192 196 198 198 196 193 192 193 193 196 195 194 194 196 199 199 200 201 206 209 199 196 197 189 183 179 178 178 181 189 192 195 202 203 195 192 194 201 205
261 263 269 256 214 200 194 202 207 210 217 214 202 202 210 203 218 230 246 251 236 216 211 200 196 197 198 198 199 196 196 193 192 191 193 196 194 192 194 197 200 206 205 200 200 192 194 200 194 185 181 182 184 188 199 210 210 199 192 195 200 203 202
270 268 264 271 258 203 200 210 216 216 218 215 213 220 217 213 215 222 230 247 249 235 210 202 195 197 199 199 201 201 198 197 196 193 191 192 194 193 192 192 197 203 209 192 200 197 193 192 193 193 191 192 194 195 199 207 217 224 215 196 195 204 196
277 276 271 264 269 250 210 217 218 219 214 207 209 208 210 216 218 220 227 246 258 248 224 200 192 194 195 197 201 202 202 196 198 198 196 194 194 195 190 190 193 200 205 205 196 197 191 192 189 193 198 203 204 202 206 211 213 207 203 198 195 197 194
263 268 271 271 265 267 239 217 210 216 212 216 209 219 223 216 218 216 220 234 245 249 240 211 197 201 200 200 198 201 205 199 198 200 199 197 196 195 193 190 191 196 198 207 203 193 190 184 185 192 199 206 210 213 217 220 209 202 207 207 200 195 206
261 266 266 265 264 261 264 229 223 207 211 208 208 204 227 230 233 232 220 231 246 247 253 221 203 201 202 201 192 202 206 205 202 202 201 199 198 196 194 192 193 195 198 204 201 187 184 174 185 194 201 205 209 215 229 216 183 194 207 213 211 211 205
248 250 264 269 263 259 259 259 218 217 210 200 199 204 206 214 219 218 220 216 220 248 256 244 207 203 202 199 192 201 206 208 208 203 202 201 200 201 198 195 197 197 201 205 195 180 180 176 188 196 201 204 204 214 226 212 193 212 204 210 219 219 223
261 244 242 249 258 259 254 256 251 210 216 202 201 205 208 212 220 219 225 230 217 218 236 256 226 203 200 194 194 204 207 210 208 202 201 200 201 199 200 198 200 202 203 206 187 181 182 183 194 193 197 198 207 218 223 201 206 208 195 207 225 225 246
275 253 238 245 254 259 256 252 254 239 203 198 199 203 207 212 214 212 209 228 248 252 256 267 259 224 197 192 191 199 204 208 203 201 199 201 198 201 201 199 201 206 206 199 182 184 184 189 194 197 188 197 206 221 209 193 212 208 204 207 215 214 222
275 273 253 242 248 257 254 250 248 254 211 200 200 205 208 203 199 205 212 215 218 224 231 295 310 274 223 191 193 193 205 207 209 205 201 199 201 199 200 201 201 203 205 191 180 183 184 192 195 190 190 202 212 205 152 206 199 196 205 207 213 214 223
271 270 268 250 239 245 252 249 246 251 247 207 207 206 202 196 199 210 220 222 214 188 110 135 276 320 288 243 190 199 200 209 212 210 208 204 204 204 201 202 203 196 198 188 181 181 187 190 192 185 199 207 189 156 187 197 189 195 205 204 202 211 212
267 268 266 263 244 245 250 249 243 244 253 238 201 199 196 196 199 204 209 212 188 175 176 167 104 206 147 210 267 212 209 210 213 216 214 209 207 206 202 202 204 187 186 182 181 185 185 187 183 200 205 199 176 173 179 198 189 191 204 205 199 204 208
262 261 260 258 259 255 256 257 246 239 245 245 215 195 192 195 198 202 200 202 204 194 186 206 192 169 186 191 202 227 223 213 201 231 271 246 220 218 212 206 201 178 181 180 183 180 180 178 193 206 210 192 180 173 186 201 208 199 193 203 212 213 211